Location: Niedergestelen
(46.3129°N, 7.7822°E)
Time: 16:32:07
(UTC+00:00)

Cosmos 1461 - Pass Details

Date: 01 December 2020
Orbit: 501 x 663 km, 65.0° (Epoch: 28 January)

Event Time Altitude Azimuth Distance (km) Brightness Sun altitude
Rises 17:56:32 0° 193° (SSW) 2,875 6.8 -22.2°
Reaches altitude 10° 17:58:52 10° 186° (S) 1,998 5.8 -22.5°
Enters shadow 18:01:39 31° 158° (SSE) 1,123 4.2 -23.0°
